Temperature
9 7 7 7 8 8 9 9 8 9 9 9 8 8 9 9 9 9 9 10 10 11 11 11 10 10 10 10 10 10 10 10 10 10 10 10 10 10 9 9 9 9 9 9
7 7 8 8 8 9 8 8 8 8 9 9 8 8 8 8 8 9 9 10 10 10 10 10 10 10 10 10 10 10 10 10 10 10 10 10 10 9 9 9 9 9 9 9
7 7 8 8 8 8 8 8 8 8 8 8 8 7 8 8 8 9 9 10 10 10 10 10 10 10 10 10 10 9 9 9 9 9 9 9 9 9 9 9 8 8 8 8
7 7 8 8 8 8 7 8 8 8 7 6 7 6 7 7 7 7 8 9 9 9 10 10 9 9 9 9 9 9 9 9 9 9 8 8 8 8 8 8 8 8 8 8
6 7 7 7 7 8 7 8 7 7 6 6 6 6 6 7 7 7 7 8 9 9 9 9 9 9 9 9 8 8 8 8 8 8 8 8 8 8 8 8 8 7 7 7
6 7 7 7 7 7 7 7 6 5 5 5 6 5 6 6 7 7 7 8 8 9 9 9 9 8 8 8 8 8 8 8 8 8 8 8 8 8 8 7 7 7 7 7
5 6 6 7 7 6 6 5 5 5 4 5 5 5 6 6 6 6 6 7 8 8 8 8 8 8 8 8 8 8 8 8 7 7 7 7 7 7 7 7 7 7 7 6
4 5 6 6 6 6 5 5 5 5 5 4 5 5 5 6 6 6 7 7 7 7 7 7 7 7 7 7 7 7 7 7 7 7 7 7 7 7 7 7 6 6 6 6
4 4 5 5 6 6 5 5 5 4 4 4 4 4 5 6 5 5 5 6 6 6 7 7 7 7 7 7 7 7 7 7 7 7 7 7 6 6 6 6 6 6 6 6
4 4 4 5 5 5 5 5 3 4 4 4 4 4 5 5 5 5 4 5 5 6 6 6 6 6 6 6 6 6 6 6 6 7 7 6 6 6 6 6 6 6 5 5
3 3 3 4 4 4 4 4 4 3 3 4 4 5 5 5 5 4 4 5 5 5 5 5 6 6 6 6 6 6 6 6 6 6 6 6 6 6 6 5 5 5 5 5
2 1 1 2 3 4 4 3 3 3 2 2 2 4 5 4 4 4 4 5 5 5 5 5 5 5 5 5 5 5 5 5 5 5 5 5 5 5 5 5 5 5 5 4
2 1 1 2 3 2 3 2 2 1 1 1 2 4 4 3 4 4 4 4 4 4 4 4 5 5 5 5 5 5 5 5 5 5 5 5 5 5 5 5 4 4 4 4
2 0 1 2 2 1 1 2 2 1 1 1 2 3 3 3 3 3 4 4 4 4 4 4 4 4 4 4 4 4 4 4 4 4 4 4 4 4 4 4 4 4 4 4
1 -0 -0 0 1 1 1 1 1 1 1 1 2 2 3 3 3 3 3 3 3 3 3 3 3 3 3 4 4 4 4 4 4 4 4 4 4 4 4 4 4 3 3 3
-0 -0 -1 -0 1 1 1 1 1 1 1 1 1 2 2 3 3 3 3 3 3 3 3 3 3 3 3 3 3 3 3 3 3 3 3 3 3 3 3 3 3 3 3 3
-1 -1 -1 -0 -0 0 0 0 0 0 0 1 1 2 2 2 2 2 2 3 2 2 2 2 2 2 3 3 3 3 3 3 3 2 2 2 3 2 2 2 2 2 2 2
-2 -1 -2 -1 -1 -1 1 0 0 0 0 0 1 1 1 2 2 2 2 2 2 2 2 2 2 2 2 2 2 2 2 2 2 2 2 2 2 2 2 2 2 2 2 2
-2 -1 -2 -2 -2 -1 0 0 -0 -0 0 -0 0 1 1 1 1 1 2 2 2 2 2 2 2 2 2 2 2 2 2 1 1 1 1 1 1 1 1 1 1 1 1 1
-2 -2 -2 -2 -1 -1 1 0 0 0 -0 0 -0 -0 0 0 -1 0 2 2 2 2 2 2 2 1 1 1 1 1 1 1 1 1 1 0 0 0 0 1 1 1 0 0
-3 -3 -3 -3 -2 -1 -1 -0 0 0 0 0 0 0 0 -1 -0 1 1 1 1 1 1 1 1 1 1 1 1 1 1 0 0 0 0 -0 -0 -0 -0 -0 -0 -0 -0 -0
-3 -3 -3 -3 -2 -1 -1 -1 -1 -0 0 0 0 0 0 0 0 1 1 1 0 0 0 0 0 0 0 0 0 0 0 -0 -0 -0 -0 -0 -0 -1 -1 -1 -1 -1 -1 -1
-3 -3 -3 -3 -1 -1 -1 -0 0 0 -0 -0 -0 -0 -0 -0 -0 0 0 0 -0 -0 -0 -0 -0 -0 -0 -0 -1 -1 -1 -1 -1 -1 -1 -1 -1 -1 -1 -1 -1 -1 -2 -2
-4 -3 -3 -3 -3 -2 -1 -0 -0 -0 -0 -0 -1 -1 -1 -1 -1 -0 -0 -1 -1 -1 -1 -1 -1 -1 -1 -1 -1 -1 -1 -2 -1 -1 -1 -1 -1 -1 -2 -2 -2 -2 -2 -2
-3 -4 -4 -3 -3 -2 -1 -1 -0 -1 -1 -1 -1 -1 -1 -1 -1 -1 -1 -1 -1 -1 -1 -1 -1 -1 -1 -1 -2 -2 -2 -2 -2 -2 -2 -2 -2 -2 -2 -2 -2 -2 -3 -3
-4 -4 -4 -3 -2 -3 -2 -1 -1 -1 -1 -2 -2 -1 -1 -1 -2 -2 -2 -2 -2 -2 -2 -2 -2 -2 -2 -2 -2 -2 -2 -2 -2 -2 -2 -2 -3 -3 -3 -3 -3 -3 -3 -3
Wind_Speed
2 3 3 6 7 5 3 3 5 6 4 3 7 10 10 7 5 6 6 6 7 7 5 4 4 4 4 3 4 4 3 3 3 2 3 3 2 2 1 1 2 3 3 3
3 3 6 4 3 3 3 3 4 5 3 3 6 10 9 7 7 8 8 8 8 6 4 3 4 4 4 4 4 4 4 3 3 2 2 2 2 1 2 1 1 2 3 3
5 4 3 3 2 3 3 4 4 5 5 3 3 7 5 5 4 4 5 6 6 8 7 6 5 4 4 4 5 5 4 4 3 2 2 2 1 1 1 2 2 2 3 3
2 3 1 2 2 3 5 3 3 3 2 4 0 4 7 4 4 5 6 6 6 6 6 7 6 5 5 4 3 4 4 3 3 3 3 4 3 3 3 3 3 2 3 3
2 1 1 2 3 3 4 2 2 2 2 3 2 3 8 3 4 6 6 7 6 6 7 7 7 7 5 4 3 3 3 3 3 3 4 4 3 3 2 2 2 2 2 3
2 2 1 3 2 2 1 2 3 3 2 3 5 5 7 4 5 4 4 5 5 4 4 4 4 4 3 3 2 2 3 3 3 3 4 5 5 4 3 3 3 3 2 2
3 3 1 0 1 2 3 4 2 3 2 6 2 4 7 5 4 3 4 4 3 3 4 3 4 4 4 4 3 3 3 3 3 4 4 5 5 5 5 5 4 4 3 3
1 4 3 1 3 3 3 5 5 4 5 5 2 6 5 4 3 2 1 1 1 1 3 4 4 5 5 5 4 4 3 3 3 4 4 4 5 4 4 5 4 4 4 4
3 4 2 1 1 4 3 4 5 3 1 3 5 5 5 2 3 4 3 1 1 1 2 2 2 3 3 4 5 5 4 4 4 4 4 4 4 4 5 4 4 3 3 3
3 2 3 3 1 1 3 4 3 3 3 4 5 5 4 5 5 4 3 3 3 2 2 1 1 2 3 3 3 3 4 4 3 3 4 4 4 5 4 4 4 4 3 3
2 2 3 2 3 4 2 2 2 2 3 4 4 5 3 4 4 4 4 4 3 2 3 3 2 2 2 1 2 2 3 3 3 3 3 3 3 3 4 4 4 4 4 3
1 2 2 5 4 2 3 4 4 3 4 3 3 6 4 3 3 2 3 4 3 3 2 3 2 2 1 1 2 3 3 3 3 3 2 3 3 2 3 4 4 4 4 4
2 3 1 4 3 2 0 1 3 2 2 3 4 6 3 4 4 2 3 4 4 3 3 3 2 2 2 2 2 2 3 3 3 2 2 2 2 2 3 3 3 3 3 3
3 3 5 7 5 2 4 4 3 3 4 5 8 10 10 8 7 6 4 4 4 3 3 3 3 3 3 3 3 3 3 2 2 2 2 3 3 3 3 3 2 3 3 3
3 3 4 6 5 4 6 8 6 7 8 8 9 11 13 9 7 6 5 4 4 4 4 4 4 5 4 4 3 3 2 2 2 2 3 3 3 2 2 2 2 2 2 3
2 2 1 4 4 5 8 10 10 10 8 9 10 12 10 7 5 5 5 4 5 5 5 5 5 5 5 4 4 3 3 3 2 2 3 3 2 2 2 2 2 2 2 2
2 3 2 4 4 5 8 8 8 6 6 7 10 11 7 6 6 6 5 5 5 5 6 6 6 6 6 5 4 4 4 3 2 2 2 2 2 2 2 2 2 2 3 2
5 4 2 2 1 6 7 3 5 6 7 7 7 7 6 7 6 5 5 4 4 5 5 5 5 5 5 5 4 3 2 2 2 2 2 2 2 2 2 2 2 3 2 3
5 5 3 2 4 7 7 4 3 4 6 5 7 8 7 6 4 6 5 4 5 5 5 5 5 5 4 4 4 2 2 1 2 2 2 2 2 2 2 2 3 2 2 2
2 3 4 4 4 6 7 3 2 2 5 6 6 7 6 3 3 6 5 4 4 4 3 3 3 3 3 4 3 2 2 2 3 4 3 3 3 3 3 3 2 1 2 2
2 2 5 5 6 8 6 3 2 3 6 4 3 5 4 4 7 6 5 4 3 3 3 3 3 3 3 3 1 2 2 4 4 3 3 2 2 2 3 2 1 1 1 1
7 6 6 5 6 8 4 3 5 6 4 3 4 4 4 6 7 6 5 4 4 3 3 3 3 4 3 2 1 2 3 4 3 2 2 2 2 1 1 1 1 1 1 1
7 8 6 8 8 5 4 5 5 3 3 5 5 6 5 6 6 6 5 4 4 3 3 3 3 4 3 2 1 2 3 3 2 2 2 2 2 1 1 1 1 1 1 2
4 3 4 5 7 7 6 5 4 4 5 6 6 6 6 7 7 7 5 4 3 3 3 3 2 3 4 4 3 3 3 2 1 2 2 2 1 1 1 1 1 2 2 2
5 4 3 6 7 5 6 6 6 6 6 6 7 6 6 6 7 6 5 4 4 4 4 3 3 4 5 4 4 3 2 1 1 2 2 2 2 1 2 2 2 2 3 3
5 6 6 8 7 5 6 6 5 5 6 7 7 6 5 4 5 5 4 4 4 4 3 3 4 4 4 4 4 3 2 1 1 2 2 2 2 1 2 2 2 2 2 3
Wind_Direction
76 91 193 210 200 196 188 214 258 262 257 241 247 262 268 257 220 220 224 216 211 217 218 187 174 156 141 149 143 143 145 155 150 157 166 175 194 201 186 174 166 165 169 168
67 232 231 209 188 212 231 257 270 288 300 264 273 276 269 248 225 215 217 220 213 206 202 191 174 163 162 165 160 158 162 167 166 176 185 184 180 202 208 209 186 179 179 174
185 229 215 168 190 209 241 223 245 270 321 317 310 302 272 266 234 224 218 216 209 194 189 188 181 180 169 174 181 179 182 176 175 163 142 118 95 55 238 219 215 204 191 187
229 263 220 167 217 199 241 222 227 258 318 291 330 289 286 265 257 240 237 224 212 201 190 187 182 184 186 192 188 180 178 172 176 170 167 166 183 205 225 219 219 223 202 193
250 249 199 211 227 201 226 240 235 242 222 294 265 223 284 298 257 252 241 236 226 207 190 189 189 190 189 185 178 174 167 170 176 178 182 179 195 214 219 213 212 218 217 204
257 285 210 214 244 207 201 36 28 45 86 267 232 193 277 265 253 262 253 247 233 210 193 186 185 176 180 174 171 168 161 181 184 177 182 186 195 206 204 216 218 222 229 219
319 299 293 164 56 16 85 90 25 350 331 249 232 204 252 274 278 255 248 253 232 204 182 177 178 182 186 184 184 186 179 198 204 191 193 198 202 205 209 214 216 218 221 230
236 280 261 222 189 190 185 152 167 209 232 274 271 225 253 285 312 343 335 257 182 189 192 197 197 192 192 193 191 191 197 211 213 207 207 204 204 208 217 216 217 218 223 228
192 254 309 300 233 161 162 195 184 159 235 267 266 277 297 329 351 358 2 15 292 238 217 212 208 204 202 201 204 202 203 214 219 217 212 208 209 209 216 220 216 221 225 222
162 247 289 308 16 358 169 159 126 162 196 247 275 266 255 291 306 323 335 331 300 287 261 243 225 225 227 222 220 208 207 217 223 218 213 216 213 211 209 209 218 220 224 219
113 183 306 338 204 204 160 162 166 183 193 197 252 265 240 246 274 293 295 292 290 276 257 257 256 253 248 239 222 222 222 222 225 225 220 215 219 217 210 211 219 215 211 208
124 137 253 262 265 242 199 190 165 185 238 209 217 264 280 272 298 308 306 303 296 283 280 266 266 275 280 262 249 237 233 228 231 227 216 216 215 210 214 218 221 213 210 207
126 120 7 334 336 357 309 210 179 156 163 201 214 261 304 331 336 328 314 316 320 314 315 303 293 279 269 265 257 248 241 237 235 220 210 217 215 210 220 225 223 215 209 208
115 148 189 213 236 228 266 274 229 180 209 235 236 258 288 306 307 307 310 311 313 308 308 305 290 280 277 269 257 248 252 250 240 218 212 221 229 223 222 221 219 217 208 205
110 192 227 249 260 251 258 261 247 229 223 226 246 256 272 280 277 278 283 294 312 314 312 306 297 289 284 279 272 259 257 255 246 226 227 234 234 230 224 217 215 215 209 208
112 182 227 280 271 272 279 266 249 249 244 241 255 266 268 276 275 276 279 282 290 295 300 306 306 300 288 277 271 267 264 256 242 232 237 239 225 223 226 218 205 208 215 215
177 161 187 267 295 323 279 251 224 223 224 217 240 255 275 286 282 271 271 269 274 282 291 294 294 295 289 280 268 258 255 249 234 234 245 236 221 222 228 218 202 211 217 216
174 166 182 251 9 247 251 241 208 218 249 237 245 263 267 264 266 272 263 248 268 281 286 292 292 292 294 295 293 273 253 236 236 245 255 249 231 229 228 214 215 220 223 217
183 170 180 187 236 269 282 259 203 210 266 249 246 267 276 275 290 295 278 255 256 266 275 282 285 284 293 298 297 287 276 255 246 256 263 257 236 229 224 222 226 225 209 221
137 147 174 189 211 243 254 266 271 148 272 266 248 262 273 295 288 281 295 293 281 286 292 298 306 304 302 300 300 283 272 261 255 259 259 255 237 223 228 230 232 229 209 217
151 175 202 212 232 261 262 276 96 176 252 280 259 260 257 245 244 268 291 292 279 283 294 303 311 310 299 303 305 276 273 264 266 269 266 258 240 231 231 223 234 220 210 194
181 182 197 188 217 252 246 145 190 231 261 265 267 268 257 258 270 273 276 278 286 297 304 309 311 308 306 313 320 296 289 289 300 300 287 271 256 248 243 204 242 221 191 195
202 200 196 200 219 251 205 209 238 241 259 272 274 277 270 271 274 276 277 274 280 285 294 303 303 309 313 303 271 272 289 303 315 316 302 299 292 269 229 204 218 222 208 214
250 210 195 239 254 257 253 258 268 261 260 270 269 273 272 268 273 276 279 280 283 289 293 300 307 308 306 304 297 270 280 295 299 296 302 308 296 296 280 236 222 217 218 222
228 189 211 249 267 282 265 254 255 265 270 277 282 274 267 267 271 266 269 273 279 291 296 293 283 282 287 295 297 291 289 292 293 291 291 292 270 254 261 251 234 232 231 223
206 198 208 241 239 230 257 260 258 263 273 277 284 291 287 267 264 269 270 271 274 281 288 291 288 287 289 293 294 295 291 265 257 282 284 280 273 264 258 257 286 283 259 263
Height
1497 1501 1503 1501 1501 1502 1503 1504 1505 1502 1498 1499 1498 1495 1490 1488 1489 1489 1489 1489 1490 1491 1493 1495 1496 1497 1498 1499 1499 1500 1502 1503 1504 1505 1505 1506 1507 1508 1509 1510 1511 1511 1512 1513
1502 1503 1498 1498 1499 1500 1502 1504 1504 1501 1497 1498 1497 1493 1487 1485 1485 1484 1485 1485 1486 1488 1490 1491 1492 1494 1495 1496 1496 1498 1499 1500 1501 1502 1502 1503 1504 1505 1506 1507 1507 1508 1509 1510
1499 1499 1496 1497 1499 1500 1501 1503 1503 1502 1499 1497 1498 1493 1486 1482 1481 1482 1482 1482 1483 1484 1486 1487 1489 1490 1492 1493 1494 1495 1496 1496 1497 1498 1499 1500 1501 1502 1503 1503 1504 1505 1505 1506
1499 1496 1495 1497 1498 1499 1501 1499 1500 1501 1504 1507 1502 1504 1488 1483 1481 1480 1479 1479 1480 1481 1483 1484 1485 1487 1489 1490 1491 1492 1493 1493 1494 1495 1496 1496 1497 1498 1499 1500 1500 1501 1502 1503
1499 1496 1496 1497 1497 1497 1499 1497 1499 1500 1504 1507 1504 1506 1492 1484 1482 1478 1477 1476 1477 1478 1479 1481 1482 1484 1486 1487 1488 1489 1490 1490 1491 1492 1493 1493 1494 1495 1496 1497 1497 1498 1499 1499
1498 1496 1496 1496 1496 1496 1497 1499 1501 1505 1508 1511 1502 1505 1495 1486 1480 1477 1475 1474 1474 1476 1477 1479 1480 1482 1483 1484 1485 1486 1487 1487 1488 1489 1489 1490 1491 1492 1493 1493 1493 1494 1495 1495
1500 1497 1496 1495 1496 1497 1498 1506 1513 1513 1517 1509 1499 1500 1493 1481 1478 1476 1474 1473 1472 1473 1475 1476 1477 1479 1480 1481 1482 1483 1483 1484 1485 1485 1486 1487 1487 1488 1489 1489 1490 1490 1491 1492
1505 1503 1497 1495 1496 1498 1499 1503 1512 1514 1514 1508 1500 1498 1487 1480 1477 1475 1474 1472 1472 1472 1473 1474 1475 1476 1477 1478 1479 1480 1480 1480 1481 1482 1482 1483 1483 1484 1485 1486 1486 1487 1487 1488
1505 1503 1497 1496 1495 1496 1499 1502 1502 1509 1512 1511 1502 1494 1485 1478 1477 1475 1474 1472 1472 1472 1472 1472 1473 1474 1475 1475 1476 1476 1477 1477 1478 1478 1479 1479 1480 1481 1481 1482 1483 1484 1484 1485
1501 1505 1499 1497 1495 1496 1497 1499 1506 1508 1511 1507 1501 1496 1489 1481 1478 1476 1474 1473 1472 1472 1472 1472 1472 1472 1472 1473 1473 1473 1474 1474 1474 1475 1475 1476 1476 1477 1478 1478 1479 1480 1480 1481
1501 1506 1504 1500 1499 1499 1499 1501 1502 1506 1507 1505 1502 1494 1481 1479 1477 1476 1475 1474 1473 1472 1471 1471 1470 1470 1470 1471 1471 1471 1471 1471 1471 1472 1472 1472 1473 1473 1474 1475 1475 1476 1477 1477
1501 1506 1508 1503 1498 1497 1497 1498 1502 1506 1507 1507 1506 1496 1478 1477 1476 1475 1474 1474 1473 1472 1471 1470 1470 1469 1469 1468 1468 1468 1468 1468 1469 1469 1469 1469 1470 1470 1470 1471 1472 1472 1473 1474
1500 1506 1510 1504 1503 1501 1500 1499 1501 1505 1508 1509 1505 1493 1478 1477 1476 1475 1474 1473 1472 1471 1470 1470 1469 1468 1467 1466 1466 1465 1465 1465 1466 1466 1466 1466 1466 1467 1467 1467 1468 1469 1469 1470
1498 1505 1508 1505 1501 1502 1502 1500 1499 1502 1506 1505 1498 1488 1480 1478 1476 1475 1474 1473 1472 1471 1470 1468 1467 1466 1465 1464 1463 1463 1462 1462 1463 1463 1463 1463 1463 1463 1464 1464 1465 1465 1465 1466
1498 1505 1505 1502 1500 1500 1499 1497 1497 1499 1497 1497 1489 1486 1478 1477 1476 1474 1473 1472 1470 1469 1468 1467 1465 1464 1463 1462 1461 1460 1459 1459 1460 1459 1459 1460 1460 1460 1460 1461 1461 1462 1462 1463
1500 1504 1504 1502 1498 1498 1495 1492 1493 1492 1491 1489 1486 1481 1476 1475 1474 1473 1471 1470 1469 1468 1466 1465 1463 1462 1461 1459 1458 1457 1456 1456 1457 1456 1456 1456 1456 1457 1457 1457 1457 1458 1458 1459
1501 1503 1505 1503 1500 1497 1495 1487 1487 1486 1484 1484 1482 1477 1473 1473 1472 1471 1469 1468 1467 1466 1465 1463 1461 1460 1459 1457 1456 1454 1454 1454 1453 1453 1453 1453 1453 1453 1453 1453 1454 1454 1454 1455
1499 1501 1505 1504 1504 1505 1485 1480 1479 1480 1479 1478 1476 1473 1472 1470 1468 1467 1467 1466 1464 1463 1462 1460 1459 1457 1456 1455 1453 1452 1451 1450 1450 1450 1449 1449 1449 1449 1449 1449 1450 1450 1450 1450
1493 1497 1502 1505 1504 1494 1482 1478 1478 1479 1477 1474 1473 1470 1469 1467 1466 1464 1464 1463 1462 1461 1459 1458 1456 1455 1453 1452 1450 1449 1448 1447 1446 1446 1446 1446 1445 1445 1446 1446 1446 1446 1446 1446
1492 1494 1500 1502 1500 1495 1479 1474 1473 1476 1476 1470 1469 1467 1466 1466 1468 1463 1461 1460 1459 1457 1456 1454 1453 1451 1450 1448 1447 1446 1444 1443 1442 1442 1442 1442 1442 1442 1442 1442 1442 1442 1442 1442
1495 1496 1498 1499 1498 1486 1475 1473 1473 1479 1474 1468 1466 1465 1464 1463 1463 1460 1458 1457 1455 1454 1453 1451 1450 1448 1446 1445 1444 1442 1441 1440 1439 1439 1438 1438 1438 1438 1438 1439 1439 1439 1438 1438
1490 1493 1495 1495 1494 1484 1470 1471 1473 1470 1466 1465 1463 1462 1461 1459 1457 1456 1455 1453 1451 1450 1449 1447 1446 1444 1443 1442 1440 1439 1438 1437 1436 1436 1435 1435 1435 1435 1435 1435 1435 1435 1435 1435
1483 1480 1481 1481 1476 1468 1466 1465 1465 1464 1463 1462 1461 1459 1458 1456 1454 1452 1451 1449 1448 1447 1445 1444 1443 1441 1440 1439 1438 1436 1435 1434 1433 1433 1432 1432 1432 1432 1432 1432 1432 1432 1432 1432
1475 1473 1475 1474 1467 1464 1463 1462 1462 1462 1460 1459 1457 1456 1454 1452 1450 1449 1447 1446 1444 1443 1442 1441 1439 1438 1437 1436 1435 1434 1433 1432 1430 1430 1429 1429 1429 1429 1429 1429 1429 1429 1429 1429
1470 1470 1470 1468 1464 1461 1459 1459 1458 1458 1457 1455 1453 1452 1450 1448 1446 1445 1443 1442 1441 1440 1439 1438 1437 1435 1434 1433 1433 1431 1430 1429 1428 1427 1426 1426 1426 1426 1426 1426 1426 1426 1426 1426
1464 1465 1466 1462 1458 1458 1455 1454 1455 1454 1452 1451 1449 1447 1445 1444 1442 1441 1440 1439 1438 1437 1436 1435 1434 1432 1431 1430 1429 1429 1428 1426 1425 1424 1424 1423 1423 1423 1422 1422 1422 1422 1423 1423